User: anonymous   Login
Location: Buisson
(44.2787°N, 4.9969°E)
Time: 04:09:59
(UTC+00:00)
Language:

SL-24 R/B - Orbit

View from above orbital plane
View from above orbital plane
View from above satellite
View from above satellite

Ground track
Ground track

The orbit data is extracted from the following two-line orbital elements,

1 31699U 07026B   21174.73501905  .00000076  00000-0  19944-4 0  9992
2 31699  97.4507 337.2120 0347785 239.5583 128.1739 14.41459004737122
Epoch (UTC): 23 June 2021 17:38:25
Eccentricity: 0.0347785
inclination: 97.4507°
perigee height: 505 km
apogee height: 1002 km
right ascension of ascending node: 337.2120°
argument of perigee: 239.5583°
revolutions per day: 14.41459004
mean anomaly at epoch: 128.1739°
orbit number at epoch: 73712

The dashed part of the orbit path shows where the satellite is in the earth's shadow,  

DLR